Wind_Speed
24 24 24 24 25 26 26 26 26 26 26 27 27 27 27 27 28 29 29 29 29 28 28 28 28 28 27 27 27 26 26 26 25 25 25 26 26 27 27 27 27 26 26
24 25 25 25 25 26 26 26 26 26 26 26 27 27 27 27 28 29 29 30 30 30 30 30 29 29 29 29 29 28 28 28 27 26 27 27 27 27 27 28 27 27 28
25 25 26 26 26 27 27 26 26 26 26 26 26 27 28 28 28 29 30 30 31 32 31 31 31 30 30 30 30 30 29 29 29 28 27 28 27 27 27 28 29 29 28
26 26 26 26 26 27 27 26 26 27 27 27 28 28 29 29 29 30 30 31 31 32 33 32 32 31 31 31 30 30 30 30 29 28 28 28 28 27 27 28 29 30 30
26 26 26 26 26 27 27 26 27 27 28 28 29 29 29 29 29 29 30 31 32 32 33 33 33 32 32 32 31 30 30 30 30 30 29 29 29 29 28 29 30 30 30
26 26 26 26 26 27 26 27 28 28 28 28 28 29 29 29 29 29 30 30 31 32 33 34 34 33 33 33 32 31 31 31 31 30 30 30 31 30 30 30 30 31 31
26 26 27 27 26 26 27 27 28 29 29 28 28 28 29 29 29 30 30 31 31 31 32 33 34 34 34 34 33 32 32 32 32 31 31 30 31 31 31 31 31 31 31
26 26 26 26 26 26 27 28 28 29 29 28 28 29 30 30 30 31 31 31 32 32 32 33 34 34 35 34 34 34 34 33 33 32 32 32 31 32 32 33 33 32 31
25 25 25 26 26 26 27 28 28 29 29 28 29 30 30 30 30 31 31 30 31 31 31 32 33 34 34 34 34 34 35 35 35 34 33 32 32 32 32 32 33 33 32
26 25 25 26 26 26 27 28 28 28 27 28 28 28 28 29 30 30 29 29 28 28 29 30 32 33 34 34 34 34 35 36 36 36 34 33 32 32 33 33 32 33 33
25 25 25 25 25 26 27 27 27 26 26 26 26 26 27 27 27 27 26 27 27 27 27 28 30 32 32 33 34 34 34 35 36 37 36 35 33 32 32 33 33 33 33
25 25 26 25 25 26 26 26 26 25 25 25 25 25 26 26 26 26 25 25 26 26 26 27 28 30 32 32 33 34 35 35 35 36 36 35 34 34 34 34 33 33 34
25 24 25 25 25 25 26 26 26 25 24 25 25 25 26 26 26 26 26 26 26 26 26 26 27 29 31 32 33 34 35 35 35 36 36 35 35 35 35 35 35 34 34
25 24 24 24 24 25 24 25 24 24 24 24 24 25 25 26 26 26 26 27 26 26 26 26 27 28 29 30 32 33 34 34 34 35 35 34 35 35 36 36 35 35 34
25 24 24 24 24 24 24 24 24 24 24 24 24 25 25 25 25 25 25 25 25 25 24 25 26 27 27 29 32 33 33 33 33 34 34 34 34 35 36 37 37 36 35
24 24 24 23 23 24 24 24 24 25 24 24 25 25 25 25 25 25 24 24 23 23 23 23 23 25 26 27 28 30 32 32 32 32 33 33 35 35 35 36 36 36 35
24 24 24 23 23 24 24 24 24 25 25 25 25 25 25 25 24 23 23 23 22 22 22 21 22 23 23 23 25 27 29 29 29 30 31 33 34 34 35 36 35 36 36
24 24 24 23 23 24 23 23 24 25 24 24 24 24 24 23 23 22 21 21 21 21 21 20 20 21 21 21 22 23 25 27 27 28 29 31 32 33 34 35 35 34 35
22 22 22 22 22 23 22 23 24 24 24 24 23 23 23 23 22 21 20 20 20 20 19 18 18 19 20 21 21 22 23 24 26 26 27 30 31 32 33 33 34 33 34
21 22 22 21 22 22 22 23 24 24 23 23 23 23 23 22 22 20 20 19 19 19 18 17 17 17 18 20 20 21 22 24 25 25 26 28 30 31 32 32 33 33 34
21 22 21 22 22 22 22 23 23 23 23 23 22 22 22 21 20 19 18 18 18 17 17 17 17 17 17 18 18 19 21 22 22 24 26 28 28 29 31 32 32 33 33
20 21 21 22 22 22 21 22 23 23 23 22 21 21 21 20 19 18 17 17 17 17 17 17 17 17 17 17 18 18 20 21 21 23 25 26 26 27 29 30 30 31 31
19 20 21 21 22 22 21 22 22 22 22 22 21 21 20 20 19 18 18 18 19 19 18 18 18 17 17 17 18 18 19 20 21 21 23 24 24 25 26 28 29 30 31
18 19 20 20 20 21 22 21 22 22 21 21 20 20 20 19 18 19 19 19 19 19 19 18 18 18 17 17 18 18 19 19 20 21 22 22 23 23 25 26 27 29 30
18 18 18 19 20 21 22 22 22 22 22 21 20 20 19 18 18 18 18 18 17 17 18 17 17 17 17 17 18 18 19 19 19 20 21 22 22 23 24 24 25 27 28
16 17 17 19 20 20 21 22 22 21 21 21 20 19 19 18 17 17 17 17 17 17 18 18 18 17 16 16 17 17 18 18 18 19 20 21 22 23 24 24 25 26 27
Wind_Direction
292 292 291 291 292 293 294 294 293 292 292 291 290 288 285 283 280 277 273 269 265 263 263 261 260 259 258 257 256 255 255 253 253 250 247 245 243 240 238 237 235 234 234
292 292 291 291 292 294 295 295 294 293 292 292 290 288 285 284 282 278 274 269 265 262 260 258 258 258 257 256 256 255 253 253 252 251 248 245 244 242 239 236 234 234 233
291 291 290 290 292 294 294 294 294 294 292 292 291 288 285 283 281 278 274 272 268 264 260 257 256 257 256 255 255 254 253 252 252 252 250 247 244 243 241 237 234 235 236
293 292 291 292 293 294 294 293 294 293 293 291 289 288 285 283 281 279 275 272 269 265 262 258 256 256 255 254 254 254 252 251 250 250 249 247 245 244 243 241 236 236 237
293 293 293 293 293 292 293 293 293 293 293 291 290 288 287 285 282 280 278 274 270 266 262 260 257 256 255 254 254 254 252 249 250 250 248 246 246 245 244 243 240 239 237
293 292 294 294 292 292 292 293 293 293 293 292 290 289 289 287 284 282 280 276 272 267 262 260 257 255 254 254 253 254 252 250 249 248 248 247 246 246 245 244 244 241 239
293 292 293 293 292 292 294 295 296 295 293 292 291 290 289 288 284 282 280 278 274 269 264 259 257 255 254 253 253 254 253 252 250 248 247 247 246 247 246 244 244 244 242
293 293 294 294 293 293 296 298 298 297 295 292 291 291 292 289 287 285 282 279 275 271 267 261 257 255 254 253 253 252 252 251 251 249 248 248 248 248 247 244 243 242 242
292 290 294 295 295 294 296 299 299 300 297 294 292 291 292 290 289 287 284 280 275 271 267 261 257 255 254 253 253 252 250 250 250 249 249 247 248 247 245 245 244 242 243
291 291 296 297 296 296 298 300 301 302 297 294 293 293 293 292 290 288 286 282 277 272 268 263 257 254 253 252 251 252 251 250 250 249 249 248 247 246 244 244 243 243 244
291 293 297 298 298 298 299 301 302 302 299 296 296 296 295 294 293 291 288 284 281 276 270 265 259 254 252 252 251 252 251 250 250 249 248 246 246 245 244 243 243 243 243
292 294 297 299 300 299 299 300 303 302 301 300 299 297 297 296 294 292 287 283 280 279 274 270 263 257 254 252 252 252 251 251 250 249 247 246 245 244 245 245 244 244 245
292 294 297 299 300 298 298 300 302 302 302 302 302 300 299 298 296 292 288 284 280 278 275 271 264 260 257 254 253 253 254 251 250 247 248 246 244 244 245 246 246 245 245
293 295 298 300 300 300 299 300 302 303 304 304 305 304 302 300 298 294 289 285 282 278 275 270 268 264 258 255 254 254 253 251 249 248 247 246 244 243 244 244 244 243 242
294 297 299 299 300 300 301 302 304 304 305 305 305 305 303 301 298 296 293 288 283 279 276 270 267 266 263 259 255 253 251 249 250 248 245 244 243 243 243 243 243 241 241
294 296 298 299 300 300 301 302 303 306 306 305 305 305 304 301 299 297 296 292 287 281 277 271 268 264 262 259 255 253 251 250 250 249 247 245 243 244 244 243 243 242 241
295 296 297 299 299 299 300 302 304 307 307 306 306 305 304 303 301 300 298 295 290 286 281 276 271 266 262 260 257 254 251 250 249 249 247 246 244 244 244 243 243 243 241
298 298 298 298 298 299 301 304 305 306 306 306 305 304 303 303 303 302 300 296 293 289 285 280 274 267 264 261 257 255 252 250 250 249 247 245 244 244 243 242 242 242 242
300 301 300 300 301 302 303 304 305 305 305 305 305 304 303 303 303 301 298 296 292 289 286 282 278 270 264 261 259 256 253 250 250 249 249 246 244 243 242 242 243 241 242
302 303 302 302 303 305 305 306 306 305 305 305 305 304 304 303 302 301 299 297 294 291 286 282 278 273 267 263 261 256 252 250 250 250 248 247 245 244 243 244 244 243 243
304 305 306 306 306 306 306 308 308 307 307 307 307 306 305 305 304 304 300 297 295 294 289 281 279 274 270 267 266 258 253 252 252 251 249 248 247 245 245 245 244 244 243
304 306 309 308 309 309 309 310 309 309 308 308 306 307 306 305 303 302 299 297 296 294 291 287 282 275 271 266 265 261 257 255 253 252 250 248 248 245 244 243 242 242 242
306 309 310 311 312 313 313 313 311 310 309 309 306 306 306 305 303 301 298 296 296 295 292 290 285 280 277 269 265 263 261 257 254 253 251 249 247 244 243 242 240 241 242
309 312 313 314 316 316 315 314 313 311 309 309 308 306 306 304 301 300 295 294 294 296 295 290 286 282 278 274 270 266 262 259 257 255 252 251 249 246 246 245 243 242 244
310 313 317 318 319 318 316 315 313 312 311 311 307 306 305 304 302 300 298 296 296 296 296 291 287 285 281 274 270 266 262 259 257 255 253 252 251 250 249 248 247 245 245
315 316 322 323 322 321 320 320 317 316 314 314 311 308 306 305 304 301 299 298 296 295 295 293 287 284 280 275 271 268 265 261 257 256 254 253 253 252 252 251 251 250 249
Height
5847 5845 5843 5841 5839 5837 5835 5833 5831 5829 5827 5825 5823 5821 5819 5818 5817 5816 5816 5816 5817 5817 5818 5818 5819 5819 5820 5821 5821 5822 5823 5824 5825 5826 5828 5829 5831 5832 5834 5836 5838 5841 5843
5842 5840 5839 5837 5834 5832 5830 5827 5825 5823 5820 5818 5816 5814 5813 5811 5810 5808 5808 5808 5808 5809 5810 5811 5811 5812 5813 5814 5815 5815 5816 5818 5819 5820 5821 5823 5824 5826 5828 5830 5832 5835 5837
5837 5835 5833 5831 5829 5826 5824 5821 5819 5817 5814 5812 5810 5808 5806 5804 5803 5801 5800 5800 5800 5801 5802 5803 5804 5805 5805 5806 5807 5808 5809 5811 5813 5814 5815 5816 5818 5820 5822 5824 5826 5829 5831
5832 5830 5828 5825 5823 5820 5818 5815 5813 5811 5808 5806 5803 5801 5799 5797 5795 5794 5792 5792 5791 5792 5793 5794 5795 5797 5798 5799 5799 5800 5802 5804 5805 5807 5809 5810 5812 5814 5816 5818 5820 5823 5825
5827 5825 5822 5820 5817 5814 5812 5809 5807 5804 5802 5799 5796 5794 5791 5789 5787 5786 5785 5784 5783 5783 5784 5785 5787 5788 5790 5791 5792 5793 5794 5796 5798 5800 5802 5804 5805 5807 5809 5811 5814 5816 5818
5821 5819 5817 5814 5811 5808 5806 5803 5801 5798 5795 5792 5789 5787 5784 5782 5780 5778 5777 5775 5775 5775 5775 5776 5778 5780 5781 5783 5784 5785 5787 5789 5790 5792 5794 5796 5799 5800 5802 5804 5807 5809 5812
5815 5813 5811 5808 5805 5803 5800 5797 5794 5791 5788 5785 5783 5780 5777 5775 5772 5770 5768 5767 5766 5766 5766 5767 5768 5770 5772 5775 5776 5778 5779 5781 5783 5785 5787 5789 5791 5793 5795 5798 5800 5802 5805
5810 5807 5805 5802 5799 5797 5794 5791 5788 5785 5781 5778 5776 5773 5770 5768 5765 5762 5760 5758 5757 5757 5757 5758 5759 5761 5763 5766 5768 5770 5772 5773 5775 5777 5779 5781 5783 5785 5788 5790 5792 5795 5798
5804 5802 5799 5796 5793 5791 5788 5785 5781 5778 5774 5771 5768 5765 5762 5760 5757 5754 5751 5749 5748 5748 5748 5749 5750 5752 5754 5757 5759 5761 5763 5765 5767 5769 5771 5773 5775 5777 5780 5783 5785 5788 5790
5798 5796 5793 5790 5787 5784 5781 5778 5775 5770 5767 5764 5761 5758 5755 5752 5749 5746 5744 5741 5739 5739 5739 5739 5741 5743 5745 5747 5750 5752 5754 5756 5758 5761 5763 5765 5767 5770 5772 5775 5777 5780 5783
5792 5790 5787 5784 5781 5778 5775 5772 5768 5764 5760 5757 5754 5751 5748 5745 5741 5739 5736 5734 5732 5731 5730 5731 5731 5733 5735 5738 5740 5743 5745 5747 5750 5752 5755 5757 5759 5762 5764 5767 5769 5772 5775
5786 5783 5781 5778 5775 5772 5769 5766 5762 5758 5755 5751 5748 5744 5741 5738 5735 5732 5729 5727 5725 5723 5722 5722 5723 5724 5726 5728 5731 5733 5736 5738 5741 5743 5746 5748 5751 5754 5756 5759 5761 5764 5766
5780 5777 5775 5772 5769 5766 5763 5760 5756 5752 5749 5745 5741 5738 5734 5731 5728 5725 5722 5720 5718 5717 5715 5715 5715 5716 5718 5720 5722 5724 5726 5729 5732 5734 5737 5739 5742 5745 5748 5751 5753 5756 5759
5774 5771 5769 5766 5763 5760 5757 5753 5750 5746 5743 5739 5735 5731 5728 5724 5721 5718 5715 5713 5711 5709 5708 5707 5707 5708 5709 5711 5713 5715 5717 5720 5722 5725 5727 5730 5733 5736 5739 5742 5745 5748 5751
5769 5766 5763 5760 5757 5754 5751 5747 5744 5740 5737 5733 5729 5725 5722 5718 5715 5711 5708 5705 5704 5702 5701 5700 5700 5700 5701 5702 5704 5706 5708 5710 5713 5715 5718 5721 5724 5727 5730 5733 5736 5739 5742
5763 5760 5757 5754 5751 5748 5745 5742 5738 5734 5730 5727 5723 5719 5715 5712 5709 5705 5702 5699 5696 5695 5694 5693 5693 5693 5693 5694 5696 5697 5699 5702 5704 5706 5709 5711 5714 5718 5721 5724 5727 5730 5733
5757 5754 5751 5748 5746 5743 5739 5736 5732 5728 5724 5720 5717 5713 5709 5706 5702 5699 5696 5693 5691 5689 5688 5687 5686 5686 5686 5687 5688 5689 5691 5693 5695 5698 5700 5702 5705 5708 5712 5715 5718 5721 5724
5752 5748 5745 5743 5740 5737 5733 5730 5726 5722 5718 5715 5711 5707 5703 5700 5697 5693 5690 5688 5686 5684 5682 5681 5680 5680 5680 5680 5681 5682 5684 5685 5687 5689 5691 5694 5697 5699 5703 5706 5709 5712 5716
5746 5743 5740 5737 5734 5730 5727 5723 5720 5716 5712 5709 5705 5701 5698 5694 5691 5688 5685 5683 5681 5679 5677 5676 5675 5674 5674 5674 5675 5676 5677 5679 5680 5682 5683 5686 5688 5691 5694 5697 5700 5704 5707
5741 5738 5735 5732 5728 5724 5721 5717 5714 5710 5706 5703 5699 5696 5693 5689 5686 5683 5680 5678 5676 5674 5672 5671 5670 5669 5669 5669 5669 5670 5671 5672 5673 5674 5676 5678 5680 5683 5686 5689 5692 5695 5698
5737 5733 5730 5726 5722 5718 5715 5711 5708 5704 5701 5697 5694 5691 5687 5684 5681 5678 5676 5673 5671 5669 5668 5666 5665 5664 5664 5664 5664 5664 5665 5665 5666 5667 5669 5671 5673 5675 5678 5680 5683 5686 5689
5732 5728 5725 5721 5717 5713 5709 5706 5702 5699 5695 5692 5689 5685 5682 5679 5676 5674 5671 5669 5667 5665 5663 5662 5660 5659 5659 5659 5658 5658 5659 5659 5660 5662 5663 5664 5665 5667 5670 5672 5675 5678 5680
5727 5723 5720 5716 5712 5708 5705 5701 5697 5693 5690 5687 5684 5680 5677 5674 5671 5669 5666 5664 5662 5660 5658 5657 5655 5654 5654 5653 5653 5653 5652 5653 5654 5655 5656 5657 5659 5660 5662 5664 5667 5669 5672
5722 5719 5715 5712 5707 5704 5700 5696 5692 5689 5685 5682 5678 5675 5672 5669 5666 5664 5662 5659 5657 5655 5653 5651 5650 5649 5648 5648 5647 5647 5647 5647 5648 5649 5649 5651 5652 5653 5655 5657 5659 5662 5664
5718 5714 5711 5707 5703 5699 5695 5692 5688 5684 5681 5677 5673 5670 5667 5665 5662 5659 5657 5654 5652 5650 5648 5646 5645 5644 5643 5642 5642 5641 5641 5641 5642 5643 5643 5645 5646 5647 5649 5650 5652 5654 5656
5713 5710 5707 5703 5699 5696 5692 5687 5683 5679 5676 5672 5669 5666 5663 5660 5657 5654 5651 5649 5647 5645 5643 5641 5640 5638 5637 5636 5636 5635 5635 5636 5636 5637 5637 5638 5639 5641 5642 5644 5645 5646 5648